Location: Sweet Grass
(48.9965°N, 111.9649°W)
Time: 08:19:05
(UTC+00:00)

UKube-1 - Visible Passes

Search period start: 01 April 2023 00:00
Search period end: 11 April 2023 00:00
Orbit: 602 x 609 km, 98.3° (Epoch: 31 March)

Date Brightness Start Highest point End Pass type
(mag) Time Alt. Az. Time Alt. Az. Time Alt. Az.
01 Apr ? 06:35:50 10° NNE 06:36:21 13° NNE 06:36:21 13° NNE visible
01 Apr ? 08:12:38 10° NNW 08:13:13 12° NNW 08:13:13 12° NNW visible
02 Apr ? 06:48:36 10° NNE 06:49:24 15° NNE 06:49:24 15° NNE visible
02 Apr ? 08:25:57 10° NNW 08:26:16 11° NNW 08:26:16 11° NNW visible
03 Apr ? 07:01:25 10° N 07:02:27 17° N 07:02:27 17° N visible
04 Apr ? 07:14:15 10° N 07:15:29 19° N 07:15:29 19° N visible
05 Apr ? 07:27:06 10° N 07:28:29 19° N 07:28:29 19° N visible
06 Apr ? 06:04:16 10° NE 06:04:37 12° NE 06:04:37 12° NE visible
06 Apr ? 07:40:00 10° N 07:41:29 19° NNW 07:41:29 19° NNW visible
07 Apr ? 06:16:50 10° NNE 06:17:36 15° NNE 06:17:36 15° NNE visible
07 Apr ? 07:52:56 10° N 07:54:28 18° NNW 07:54:28 18° NNW visible
08 Apr ? 06:29:26 10° NNE 06:30:34 18° NNE 06:30:34 18° NNE visible
08 Apr ? 08:05:56 10° NNW 08:07:26 16° NNW 08:07:26 16° NNW visible
09 Apr ? 06:42:04 10° NNE 06:43:32 21° NNE 06:43:32 21° NNE visible
09 Apr ? 08:19:01 10° NNW 08:20:23 14° NW 08:20:23 14° NW visible
10 Apr ? 06:54:44 10° NNE 06:56:28 24° NNE 06:56:28 24° NNE visible
10 Apr ? 08:32:18 10° NNW 08:33:19 12° NW 08:33:19 12° NW visible
